Change the Weather History Date:

Thursday, February 20, 2014

  Actual Average (KMML) Record (KMML)
Temperature  
Mean Temperature 27 °F -  
Max Temperature 39 °F 30 °F 64 °F (1981)
Min Temperature 14 °F 12 °F -20 °F (1966)
Degree Days  
Heating Degree Days 38    
Moisture  
Dew Point 25 °F    
Average Humidity 79    
Maximum Humidity 93    
Minimum Humidity 66    
Precipitation  
Precipitation 0.00 in - - ()
Sea Level Pressure  
Sea Level Pressure 29.58 in    
Wind  
Wind Speed 13 mph (NW)    
Max Wind Speed 30 mph    
Max Gust Speed 38 mph    
Visibility 9 miles    
Events Rain , Snow    
Averages and records for this station are not official NWS values.
T = Trace of Precipitation, MM = Missing Value Source: NWS Daily Summary

Daily Weather History Graph

Daily Weather History Graph

Search for Another Location

Airport or City:

Trip Planner

Search our weather history database for the weather conditions in past years. The results will help you decide how hot, cold, wet, or windy it might be!

Date:

Astronomy

Feb. 20, 2014 Rise Set
Actual Time 7:17 AM CST 6:00 PM CST
Civil Twilight 6:47 AM CST 6:30 PM CST
Nautical Twilight 6:13 AM CST 7:04 PM CST
Astronomical Twilight 5:40 AM CST 7:38 PM CST
Moon No Moon Rise 9:46 AM CST (2/20)
Length of Visible Light 11h 42m
Length of Day
10h 43m
Waning Gibbous, 70% of the Moon is Illuminated
Feb 20
Waning Gibbous
Feb 22
Last Quarter
Mar 1
New
Mar 8
First Quarter
Mar 16
Full

Hourly Weather History & Observations

Time (CST) Temp. Windchill Dew Point Humidity Pressure Visibility Wind Dir Wind Speed Gust Speed Precip Events Conditions
12:15 AM 36.5 °F 28.7 °F 28.8 °F 74% 29.57 in 10.0 mi SW 11.5 mph 17.3 mph N/A   Clear
12:34 AM 35.8 °F 28.3 °F 29.1 °F 77% 29.58 in 10.0 mi SW 10.4 mph - N/A   Clear
12:55 AM 35.6 °F 28.6 °F 28.9 °F 77% 29.57 in 10.0 mi SW 9.2 mph - N/A   Clear
1:15 AM 35.6 °F 29.2 °F 28.9 °F 77% 29.57 in 10.0 mi SW 8.1 mph - N/A   Clear
1:34 AM 36.5 °F 28.7 °F 29.1 °F 75% 29.57 in 10.0 mi WSW 11.5 mph 17.3 mph N/A   Scattered Clouds
1:55 AM 36.3 °F 28.9 °F 29.8 °F 77% 29.57 in 10.0 mi West 10.4 mph - N/A   Clear
2:14 AM 35.8 °F 29.4 °F 30.2 °F 80% 29.58 in 10.0 mi West 8.1 mph - N/A   Scattered Clouds
2:35 AM 35.6 °F 30.7 °F 30.7 °F 82% 29.57 in 10.0 mi West 5.8 mph - N/A   Scattered Clouds
2:55 AM 35.6 °F 28.0 °F 30.9 °F 83% 29.58 in 10.0 mi West 10.4 mph - N/A   Mostly Cloudy
3:14 AM 36.5 °F 29.7 °F 31.1 °F 81% 29.57 in 10.0 mi WNW 9.2 mph - N/A   Overcast
3:35 AM 36.5 °F 30.3 °F 31.3 °F 81% 29.57 in 10.0 mi WNW 8.1 mph - N/A   Overcast
3:54 AM 37.0 °F 30.4 °F 31.1 °F 79% 29.57 in 10.0 mi WNW 9.2 mph - N/A   Overcast
4:14 AM 37.0 °F 29.8 °F 31.1 °F 79% 29.57 in 10.0 mi WNW 10.4 mph - N/A   Overcast
4:34 AM 37.4 °F 29.8 °F 30.7 °F 77% 29.57 in 10.0 mi WNW 11.5 mph - N/A   Overcast
4:54 AM 38.5 °F 29.9 °F 30.2 °F 72% 29.58 in 10.0 mi WNW 15.0 mph 20.7 mph N/A   Overcast
5:15 AM 39.7 °F 33.2 °F 29.3 °F 66% 29.59 in 10.0 mi WNW 10.4 mph - N/A   Overcast
5:34 AM 38.8 °F 30.4 °F 29.3 °F 69% 29.59 in 10.0 mi NW 15.0 mph - N/A   Light Drizzle
5:54 AM 38.3 °F 30.5 °F 30.9 °F 75% 29.60 in 10.0 mi NW 12.7 mph 20.7 mph N/A   Light Drizzle
6:15 AM 37.6 °F 33.1 °F 31.1 °F 77% 29.60 in 10.0 mi NW 5.8 mph - N/A   Overcast
6:34 AM 38.3 °F 33.9 °F 30.6 °F 74% 29.60 in 10.0 mi NW 5.8 mph - N/A Rain Light Rain
6:54 AM 38.5 °F 36.1 °F 30.0 °F 72% 29.59 in 10.0 mi NW 3.5 mph - N/A   Overcast
7:15 AM 38.3 °F 35.9 °F 29.5 °F 71% 29.59 in 10.0 mi NW 3.5 mph - N/A   Overcast
7:34 AM 36.3 °F 30.1 °F 30.4 °F 79% 29.59 in 10.0 mi WNW 8.1 mph - N/A   Overcast
7:54 AM 36.7 °F 32.9 °F 30.0 °F 77% 29.59 in 10.0 mi NW 4.6 mph - N/A   Overcast
8:15 AM 36.0 °F 31.1 °F 30.4 °F 80% 29.58 in 10.0 mi WNW 5.8 mph - N/A   Overcast
8:34 AM 35.8 °F 30.9 °F 30.6 °F 81% 29.58 in 10.0 mi WNW 5.8 mph - N/A   Overcast
8:54 AM 35.6 °F 29.9 °F 30.9 °F 83% 29.58 in 10.0 mi WNW 6.9 mph - N/A   Overcast
9:14 AM 35.8 °F 29.4 °F 30.9 °F 82% 29.58 in 10.0 mi WNW 8.1 mph - N/A   Overcast
9:35 AM 36.5 °F 29.7 °F 30.4 °F 78% 29.58 in 10.0 mi NW 9.2 mph - N/A   Overcast
9:55 AM 36.5 °F 29.7 °F 30.4 °F 78% 29.58 in 10.0 mi WNW 9.2 mph - N/A   Overcast
10:14 AM 36.7 °F 28.9 °F 30.4 °F 78% 29.58 in 10.0 mi WNW 11.5 mph - N/A   Overcast
10:34 AM 36.9 °F 30.7 °F 30.2 °F 77% 29.57 in 10.0 mi WNW 8.1 mph - N/A   Overcast
10:54 AM 37.4 °F 30.8 °F 30.2 °F 75% 29.56 in 10.0 mi NW 9.2 mph - N/A   Overcast
11:15 AM 37.8 °F 30.7 °F 29.5 °F 72% 29.56 in 10.0 mi NNW 10.4 mph - N/A   Overcast
11:34 AM 37.9 °F 30.9 °F 29.5 °F 72% 29.55 in 10.0 mi NW 10.4 mph - N/A   Overcast
11:54 AM 38.3 °F 29.7 °F 29.3 °F 70% 29.55 in 10.0 mi NW 15.0 mph - N/A   Overcast
12:15 PM 38.3 °F 30.9 °F 29.3 °F 70% 29.54 in 10.0 mi NNW 11.5 mph 17.3 mph N/A   Overcast
12:34 PM 38.3 °F 31.4 °F 29.8 °F 72% 29.54 in 10.0 mi NNW 10.4 mph - N/A   Mostly Cloudy
12:54 PM 37.9 °F 29.6 °F 29.7 °F 72% 29.53 in 10.0 mi NNW 13.8 mph - N/A   Mostly Cloudy
1:15 PM 37.6 °F 29.6 °F 29.3 °F 72% 29.51 in 10.0 mi NNW 12.7 mph - N/A   Overcast
1:35 PM 37.4 °F 29.3 °F 29.7 °F 74% 29.51 in 10.0 mi NNW 12.7 mph - N/A   Overcast
1:54 PM 37.4 °F 28.2 °F 29.5 °F 73% 29.50 in 10.0 mi NNW 16.1 mph - N/A   Overcast
2:14 PM 36.9 °F 28.2 °F 29.8 °F 76% 29.49 in 10.0 mi NNW 13.8 mph 18.4 mph N/A   Overcast
2:34 PM 36.5 °F 27.4 °F 29.3 °F 75% 29.49 in 10.0 mi NNW 15.0 mph 23.0 mph N/A   Overcast
2:55 PM 36.1 °F 25.5 °F 29.7 °F 77% 29.50 in 10.0 mi NNW 19.6 mph 23.0 mph N/A   Overcast
3:14 PM 34.9 °F 23.9 °F 29.3 °F 80% 29.51 in 10.0 mi NNW 19.6 mph 29.9 mph N/A   Overcast
3:35 PM 33.8 °F 21.6 °F 29.1 °F 83% 29.52 in 10.0 mi NNW 23.0 mph 28.8 mph N/A   Overcast
3:55 PM 32.5 °F 20.2 °F 28.9 °F 87% 29.53 in 7.0 mi NNW 21.9 mph 26.5 mph N/A Snow Light Snow
4:14 PM 31.6 °F 19.0 °F 28.6 °F 88% 29.55 in 1.0 mi NNW 21.9 mph 33.4 mph N/A Snow Light Snow
4:35 PM 29.3 °F 15.0 °F 27.1 °F 92% 29.56 in 1.0 mi NNW 25.3 mph 33.4 mph N/A Snow Light Snow
4:54 PM 28.4 °F 14.4 °F 26.6 °F 93% 29.57 in 1.0 mi NW 23.0 mph 34.5 mph N/A Snow Light Snow
5:14 PM 26.6 °F 11.1 °F 24.8 °F 93% 29.58 in 1.0 mi NW 26.5 mph 36.8 mph N/A Snow Light Snow
5:35 PM 25.0 °F 8.9 °F 23.2 °F 93% 29.59 in 0.8 mi NW 26.5 mph 34.5 mph N/A Snow Light Snow
5:54 PM 23.9 °F 8.1 °F 21.4 °F 90% 29.59 in 2.5 mi NW 24.2 mph 31.1 mph N/A Snow Light Snow
6:14 PM 22.8 °F 6.0 °F 19.8 °F 88% 29.60 in 7.0 mi NW 26.5 mph 34.5 mph N/A Snow Light Snow
6:35 PM 21.6 °F 4.7 °F 18.1 °F 87% 29.60 in 10.0 mi NW 25.3 mph 34.5 mph N/A   Overcast
6:54 PM 20.8 °F 2.5 °F 16.5 °F 83% 29.62 in 10.0 mi NW 29.9 mph 38.0 mph N/A   Overcast
7:14 PM 20.3 °F 4.4 °F 15.6 °F 82% 29.63 in 10.0 mi NW 20.7 mph 34.5 mph N/A   Overcast
7:35 PM 20.8 °F 4.0 °F 15.8 °F 81% 29.63 in 10.0 mi NW 24.2 mph 34.5 mph N/A   Overcast
7:54 PM 20.3 °F 2.3 °F 14.7 °F 79% 29.63 in 10.0 mi NW 27.6 mph 34.5 mph N/A   Overcast
8:14 PM 19.8 °F 2.9 °F 14.0 °F 78% 29.63 in 10.0 mi NW 23.0 mph 33.4 mph N/A   Overcast
8:35 PM 19.8 °F 1.6 °F 13.8 °F 78% 29.63 in 10.0 mi NW 27.6 mph 33.4 mph N/A   Overcast
8:55 PM 19.2 °F 1.2 °F 12.7 °F 76% 29.63 in 10.0 mi NW 26.5 mph 38.0 mph N/A   Overcast
9:14 PM 18.7 °F 0.8 °F 12.7 °F 78% 29.63 in 10.0 mi NW 25.3 mph 33.4 mph N/A   Overcast
9:34 PM 17.6 °F 0.5 °F 12.0 °F 79% 29.63 in 10.0 mi NW 21.9 mph 34.5 mph N/A   Overcast
9:55 PM 17.1 °F -1.0 °F 11.3 °F 78% 29.63 in 10.0 mi NW 24.2 mph 34.5 mph N/A   Mostly Cloudy
10:14 PM 16.7 °F -2.2 °F 10.9 °F 78% 29.63 in 10.0 mi NW 26.5 mph 34.5 mph N/A   Scattered Clouds
10:34 PM 16.7 °F -0.3 °F 11.7 °F 81% 29.63 in 10.0 mi NW 20.7 mph 29.9 mph N/A Snow Light Snow
10:55 PM 16.2 °F -1.4 °F 10.8 °F 79% 29.62 in 10.0 mi NW 21.9 mph 34.5 mph N/A   Overcast
11:15 PM 15.6 °F -2.6 °F 10.4 °F 80% 29.62 in 10.0 mi NW 23.0 mph 32.2 mph N/A   Scattered Clouds
11:34 PM 15.4 °F -2.8 °F 10.0 °F 79% 29.61 in 10.0 mi NW 23.0 mph 35.7 mph N/A   Scattered Clouds
11:54 PM 14.9 °F -4.3 °F 9.5 °F 79% 29.61 in 10.0 mi NW 25.3 mph 32.2 mph N/A   Scattered Clouds